Location: Melbourne
(37.8170°S, 144.9670°E)
Time: 11:37:28
(UTC+10:00)

Transit 2A - All Passes

Search period start: 31 July 2016 00:00
Search period end: 10 August 2016 00:00
Orbit: 591 x 968 km, 66.7° (Epoch: 29 July)

Date Brightness Start Highest point End Pass type
(mag) Time Alt. Az. Time Alt. Az. Time Alt. Az.
31 Jul - 01:59:22 10° NE 02:01:00 12° ENE 02:02:35 10° E night (unlit)
31 Jul - 03:38:53 10° NW 03:43:40 64° WSW 03:48:08 10° SSE night (unlit)
31 Jul - 12:26:27 10° SSW 12:30:58 62° ESE 12:35:49 10° NE daylight
31 Jul - 14:11:40 10° W 14:13:40 13° WNW 14:15:43 10° NW daylight
01 Aug - 03:04:52 10° NNW 03:09:43 81° ENE 03:14:13 10° SSE night (unlit)
01 Aug - 04:51:44 10° WSW 04:53:21 12° SW 04:54:56 10° SSW visible
01 Aug - 11:52:41 10° SSW 11:56:58 40° ESE 12:01:33 10° NE daylight
01 Aug - 13:36:29 10° WSW 13:39:52 20° WNW 13:43:25 10° NNW daylight
02 Aug - 02:31:07 10° N 02:35:48 51° ENE 02:40:10 10° SE night (unlit)
02 Aug - 04:16:07 10° W 04:19:09 17° SW 04:22:06 10° S night (unlit)
02 Aug - 11:19:02 10° S 11:22:55 27° SE 11:27:01 10° ENE daylight
02 Aug - 13:01:58 10° SW 13:06:01 31° WNW 13:10:22 10° N daylight
03 Aug - 01:57:38 10° N 02:01:55 32° ENE 02:05:56 10° SE night (unlit)
03 Aug - 03:41:11 10° WNW 03:45:02 25° SW 03:48:43 10° S night (unlit)
03 Aug - 10:45:36 10° S 10:48:49 19° SE 10:52:09 10° E daylight
03 Aug - 12:27:42 10° SW 12:32:08 48° WNW 12:36:56 10° N daylight
04 Aug - 01:24:32 10° NNE 01:28:04 21° ENE 01:31:26 10° ESE night (unlit)
04 Aug - 03:06:36 10° NW 03:10:58 37° WSW 03:15:07 10° S night (unlit)
04 Aug - 10:12:33 10° SSE 10:14:38 13° SE 10:16:45 10° ESE daylight
04 Aug - 11:53:38 10° SSW 11:58:13 76° WNW 12:03:12 10° NNE daylight
05 Aug - 00:52:07 10° NE 00:54:15 13° ENE 00:56:20 10° E night (unlit)
05 Aug - 02:32:17 10° NW 02:36:57 57° WSW 02:41:21 10° SSE night (unlit)
05 Aug - 11:19:41 10° SSW 11:24:16 70° ESE 11:29:14 10° NE daylight
05 Aug - 13:05:29 10° W 13:06:56 11° WNW 13:08:25 10° WNW daylight
06 Aug - 01:58:13 10° NNW 02:02:59 89° W 02:07:28 10° SSE night (unlit)
06 Aug - 03:46:00 10° SW 03:46:43 10° SW 03:47:26 10° SW night (unlit)
06 Aug - 10:45:53 10° SSW 10:50:16 45° ESE 10:55:01 10° NE daylight
06 Aug - 12:29:57 10° WSW 12:33:08 18° WNW 12:36:29 10° NNW daylight
07 Aug - 01:24:24 10° NNW 01:29:04 57° ENE 01:33:27 10° SE night (unlit)
07 Aug - 03:09:48 10° W 03:12:30 15° SW 03:15:08 10° SSW night (unlit)
07 Aug - 10:12:12 10° S 10:16:14 30° SE 10:20:33 10° ENE daylight
07 Aug - 11:55:19 10° SW 11:59:17 28° WNW 12:03:33 10° NNW daylight
08 Aug - 00:50:50 10° N 00:55:11 35° ENE 00:59:16 10° SE night (unlit)
08 Aug - 02:34:44 10° WNW 02:38:21 22° SW 02:41:51 10° S night (unlit)
08 Aug - 09:38:41 10° S 09:42:09 21° SE 09:45:47 10° E daylight
08 Aug - 11:21:01 10° SW 11:25:25 43° WNW 11:30:11 10° N daylight
09 Aug - 00:17:38 10° NNE 00:21:20 23° ENE 00:24:51 10° ESE night (unlit)
09 Aug - 02:00:04 10° WNW 02:04:16 33° WSW 02:08:17 10° S night (unlit)
09 Aug - 09:05:28 10° SSE 09:08:00 14° SE 09:10:35 10° E daylight
09 Aug - 10:46:53 10° SSW 10:51:30 68° WNW 10:56:31 10° NNE daylight
09 Aug - 23:44:59 10° NE 23:47:30 14° ENE 23:49:57 10° ESE night (unlit)
